Back to catalog

STARLINK-11537

AliveCommunicationsVLEO
NORAD 62911·PAYLOAD·🇺🇸 United States

Launched Feb 8, 2025 from Cape Canaveral Space Force Station

Loading…

Next Passes (next 24 hours)

TLE

FreshSource: CelesTrak SupGP

Epoch: Sep 15, 2026, 02:37 UTC

1 62911C 25027E   26258.10951389  .00067555  00000+0  52462-3 0  2581
2 62911  43.0002 285.9361 0001404 259.6583  62.4655 15.70809090    19

Track STARLINK-11537 in real time with AllMySat

Download on the App Store